Previsão horária em Abanilla

Hoje, 17 Abril, Sábado

Tempo Temperatura Precipitação Vento Pressão Humidade
00:00 +10°C° 0 mm 1 m/s 742 mmHg 78%
01:00 +10°C° 0 mm 1 m/s 741 mmHg 79%
02:00 +10°C° 0 mm 1 m/s 741 mmHg 79%
03:00 +10°C° 0 mm 1 m/s 741 mmHg 80%
04:00 +10°C° 0 mm 1 m/s 741 mmHg 80%
05:00 +10°C° 0 mm 1 m/s 741 mmHg 80%
06:00 +10°C° 0 mm 1 m/s 741 mmHg 80%
07:00 +11°C° 0 mm 1 m/s 741 mmHg 72%
08:00 +12°C° 0 mm 1 m/s 742 mmHg 64%
09:00 +13°C° 0 mm 2 m/s 742 mmHg 55%
10:00 +15°C° 0 mm 2 m/s 741 mmHg 48%
11:00 +16°C° 0 mm 3 m/s 741 mmHg 40%
12:00 +17°C° 0 mm 4 m/s 741 mmHg 32%
13:00 +17°C° 0 mm 4 m/s 741 mmHg 32%
14:00 +18°C° 0 mm 4 m/s 740 mmHg 32%
15:00 +18°C° 0 mm 4 m/s 740 mmHg 33%
16:00 +17°C° 0 mm 4 m/s 740 mmHg 42%
17:00 +14°C° 0 mm 4 m/s 740 mmHg 52%
18:00 +13°C° 0 mm 3 m/s 741 mmHg 61%
19:00 +12°C° 0 mm 3 m/s 741 mmHg 66%
20:00 +12°C° 0 mm 2 m/s 742 mmHg 71%
21:00 +12°C° 0 mm 1 m/s 742 mmHg 75%
22:00 +11°C° 0 mm 1 m/s 742 mmHg 78%
23:00 +11°C° 0 mm 1 m/s 742 mmHg 80%

Amanhã, 18 Abril, Domingo

Tempo Temperatura Precipitação Vento Pressão Humidade
00:00 +10°C° 0 mm 0 m/s 742 mmHg 82%
01:00 +10°C° 0 mm 1 m/s 742 mmHg 83%
02:00 +10°C° 0 mm 1 m/s 741 mmHg 83%
03:00 +10°C° 0 mm 1 m/s 741 mmHg 84%
04:00 +10°C° 0 mm 1 m/s 741 mmHg 82%
05:00 +10°C° 0 mm 1 m/s 741 mmHg 80%
06:00 +9°C° 0 mm 2 m/s 742 mmHg 78%
07:00 +12°C° 0 mm 2 m/s 742 mmHg 65%
08:00 +12°C° 0 mm 3 m/s 742 mmHg 52%
09:00 +14°C° 0 mm 3 m/s 743 mmHg 39%
10:00 +16°C° 0 mm 3 m/s 743 mmHg 37%
11:00 +17°C° 0 mm 3 m/s 743 mmHg 34%
12:00 +18°C° 0 mm 3 m/s 743 mmHg 32%
13:00 +18°C° 0 mm 3 m/s 742 mmHg 34%
14:00 +19°C° 0 mm 4 m/s 742 mmHg 36%
15:00 +19°C° 0 mm 4 m/s 742 mmHg 38%
16:00 +17°C° 0 mm 4 m/s 742 mmHg 45%
17:00 +16°C° 0 mm 3 m/s 743 mmHg 52%
18:00 +14°C° 0 mm 3 m/s 743 mmHg 60%
19:00 +14°C° 0 mm 2 m/s 743 mmHg 64%
20:00 +13°C° 0 mm 2 m/s 744 mmHg 69%
21:00 +12°C° 0 mm 1 m/s 744 mmHg 73%
22:00 +12°C° 0 mm 1 m/s 744 mmHg 74%
23:00 +12°C° 0 mm 1 m/s 743 mmHg 76%

Depois de amanhã, 19 Abril, Segunda-feira

Tempo Temperatura Precipitação Vento Pressão Humidade
00:00 +12°C° 0 mm 1 m/s 743 mmHg 77%
01:00 +12°C° 0 mm 1 m/s 743 mmHg 78%
02:00 +11°C° 0 mm 1 m/s 742 mmHg 80%
03:00 +11°C° 0 mm 1 m/s 742 mmHg 82%
04:00 +11°C° 0 mm 1 m/s 742 mmHg 80%
05:00 +12°C° 0 mm 1 m/s 742 mmHg 78%
06:00 +12°C° 0 mm 1 m/s 741 mmHg 77%
07:00 +14°C° 0 mm 1 m/s 741 mmHg 68%
08:00 +16°C° 0 mm 2 m/s 741 mmHg 59%
09:00 +17°C° 0 mm 2 m/s 741 mmHg 50%
10:00 +19°C° 0 mm 2 m/s 741 mmHg 45%
11:00 +20°C° 0 mm 2 m/s 741 mmHg 39%
12:00 +21°C° 0 mm 3 m/s 740 mmHg 34%
13:00 +22°C° 0 mm 3 m/s 740 mmHg 33%
14:00 +22°C° 0 mm 4 m/s 739 mmHg 32%
15:00 +22°C° 0 mm 4 m/s 738 mmHg 30%
16:00 +22°C° 0 mm 4 m/s 738 mmHg 33%
17:00 +21°C° 0 mm 4 m/s 738 mmHg 36%
18:00 +21°C° 0 mm 4 m/s 738 mmHg 39%
19:00 +20°C° 0 mm 4 m/s 738 mmHg 42%
20:00 +19°C° 0 mm 3 m/s 738 mmHg 45%
21:00 +18°C° 0 mm 2 m/s 739 mmHg 49%
22:00 +17°C° 0 mm 2 m/s 738 mmHg 51%
23:00 +17°C° 0 mm 2 m/s 738 mmHg 54%

20 Abril, Terça-feira

Tempo Temperatura Precipitação Vento Pressão Humidade
00:00 +17°C° 0 mm 2 m/s 738 mmHg 56%
01:00 +16°C° 0.1 mm 2 m/s 738 mmHg 59%
02:00 +16°C° 0.1 mm 1 m/s 737 mmHg 62%
03:00 +15°C° 0.1 mm 1 m/s 737 mmHg 65%
04:00 +15°C° 0.2 mm 1 m/s 737 mmHg 66%
05:00 +15°C° 0.2 mm 1 m/s 737 mmHg 68%
06:00 +15°C° 0.2 mm 1 m/s 737 mmHg 69%
07:00 +17°C° 0 mm 2 m/s 737 mmHg 62%
08:00 +18°C° 0 mm 3 m/s 737 mmHg 55%
09:00 +20°C° 0 mm 4 m/s 737 mmHg 48%
10:00 +21°C° 0 mm 5 m/s 737 mmHg 42%
11:00 +22°C° 0 mm 5 m/s 736 mmHg 37%
12:00 +23°C° 0 mm 6 m/s 736 mmHg 31%
13:00 +23°C° 0 mm 6 m/s 736 mmHg 32%
14:00 +23°C° 0 mm 6 m/s 735 mmHg 33%
15:00 +23°C° 0 mm 6 m/s 735 mmHg 34%
16:00 +22°C° 0.1 mm 6 m/s 735 mmHg 39%
17:00 +21°C° 0.1 mm 5 m/s 736 mmHg 44%
18:00 +20°C° 0.1 mm 4 m/s 736 mmHg 49%
19:00 +18°C° 0.1 mm 4 m/s 737 mmHg 58%
20:00 +17°C° 0.1 mm 3 m/s 737 mmHg 68%
21:00 +15°C° 0.1 mm 2 m/s 738 mmHg 77%
22:00 +15°C° 0 mm 1 m/s 738 mmHg 78%
23:00 +14°C° 0 mm 1 m/s 738 mmHg 79%

21 Abril, Quarta-feira

Tempo Temperatura Precipitação Vento Pressão Humidade
00:00 +14°C° 0 mm 1 m/s 738 mmHg 79%
01:00 +14°C° 0 mm 1 m/s 738 mmHg 79%
02:00 +14°C° 0 mm 1 m/s 737 mmHg 79%
03:00 +13°C° 0 mm 1 m/s 737 mmHg 78%
04:00 +13°C° 0 mm 1 m/s 737 mmHg 80%
05:00 +13°C° 0 mm 1 m/s 738 mmHg 81%
06:00 +13°C° 0 mm 2 m/s 738 mmHg 82%
07:00 +14°C° 0 mm 2 m/s 738 mmHg 78%
08:00 +16°C° 0 mm 2 m/s 739 mmHg 73%
09:00 +17°C° 0 mm 3 m/s 739 mmHg 68%
10:00 +17°C° 0.3 mm 3 m/s 739 mmHg 65%
11:00 +18°C° 0.3 mm 4 m/s 739 mmHg 62%
12:00 +19°C° 0.3 mm 5 m/s 739 mmHg 60%
13:00 +19°C° 0.3 mm 5 m/s 739 mmHg 60%
14:00 +17°C° 0.3 mm 5 m/s 739 mmHg 61%
15:00 +17°C° 0.3 mm 6 m/s 739 mmHg 61%
16:00 +17°C° 0.1 mm 5 m/s 739 mmHg 65%
17:00 +16°C° 0.1 mm 5 m/s 739 mmHg 69%
18:00 +15°C° 0.1 mm 5 m/s 739 mmHg 72%
19:00 +14°C° 0 mm 4 m/s 740 mmHg 76%
20:00 +14°C° 0 mm 4 m/s 741 mmHg 80%
21:00 +13°C° 0 mm 3 m/s 741 mmHg 84%
22:00 +13°C° 0 mm 3 m/s 741 mmHg 85%
23:00 +14°C° 0 mm 2 m/s 741 mmHg 86%

22 Abril, Quinta-feira

Tempo Temperatura Precipitação Vento Pressão Humidade
00:00 +14°C° 0 mm 2 m/s 741 mmHg 87%
01:00 +14°C° 0 mm 2 m/s 741 mmHg 87%
02:00 +14°C° 0 mm 2 m/s 741 mmHg 87%
03:00 +14°C° 0 mm 2 m/s 741 mmHg 87%
04:00 +14°C° 0 mm 2 m/s 741 mmHg 86%
05:00 +14°C° 0 mm 2 m/s 741 mmHg 85%
06:00 +14°C° 0 mm 2 m/s 741 mmHg 84%
07:00 +14°C° 0.1 mm 2 m/s 742 mmHg 82%
08:00 +13°C° 0.1 mm 3 m/s 742 mmHg 79%
09:00 +14°C° 0.1 mm 3 m/s 742 mmHg 76%
10:00 +14°C° 0.4 mm 3 m/s 742 mmHg 76%
11:00 +14°C° 0.4 mm 4 m/s 742 mmHg 75%
12:00 +14°C° 0.4 mm 4 m/s 742 mmHg 75%
13:00 +14°C° 0.1 mm 4 m/s 742 mmHg 71%
14:00 +16°C° 0.1 mm 3 m/s 742 mmHg 66%
15:00 +16°C° 0.1 mm 3 m/s 742 mmHg 61%
16:00 +16°C° 0 mm 3 m/s 742 mmHg 64%
17:00 +14°C° 0 mm 3 m/s 742 mmHg 66%
18:00 +14°C° 0 mm 3 m/s 742 mmHg 68%
19:00 +14°C° 0 mm 2 m/s 742 mmHg 72%
20:00 +14°C° 0 mm 1 m/s 742 mmHg 76%
21:00 +13°C° 0 mm 1 m/s 742 mmHg 79%
22:00 +13°C° 0 mm 1 m/s 742 mmHg 80%
23:00 +13°C° 0 mm 1 m/s 742 mmHg 80%
Mostrar mais

Necessitamos do seu Consentimento

A Meteoprog e os seus Fornecedores de Serviços podem armazenar e aceder a dados pessoais como cookies, identificadores do dispositivo ou outras tecnologias semelhantes existentes no seu dispositivo e processar estes dados para personalizar conteúdos e anúncios, assim como funcionalidades nas redes sociais e análise de tráfego.

  • Armazenar e/ou aceder a informações no seu dispositivo

    Os cookies, identificadores do dispositivo ou outras informações podem ser armazenados ou acedidos no seu dispositivo, para os fins acima indicados.

  • Anúncios e conteúdos personalizados, medição de anúncios e conteúdos, dados sobre o público-alvo e desenvolvimento de produtos

    Os anúncios e os conteúdos podem ser personalizados com base num perfil. Podem ser adicionados dados adicionais para uma maior personalização dos anúncios e dos conteúdos. A eficácia dos anúncios e dos conteúdos pode ser medida. Podem ser obtidas informações sobre o público que visualizou os anúncios e os conteúdos. Estes dados podem ser usados para desenvolver ou melhorar sistemas, softwares ou a experiência do utilizador.

Ao clicar em "Eu concordo”, permitirá o uso de cookies, identificadores do dispositivo e web beacons mencionados ou outras tecnologias semelhantes. As configurações do navegador do seu dispositivo podem ser alteradas.

Para certos fins, podem ser invocados interesses legítimos ao invés de consentimento. Pode ler mais informação sobre este assunto na nossa Política de Privacidade e Cookies.